sat.trackr.live / text

‹ back to catalog

STARLINK-37262

NORAD 68508 · 2026-068A

PAYLOAD ACTIVE UNKNOWN

§ Identity

Operator
Country
US
Launch date
2026-03-30
Launch site
AFETR
Launch vehicle
Mass (kg)
RCS (m²)

Purposes: comms

External: N2YO · Heavens-Above · Gunter

§ Orbital elements

Epoch: 2026-09-19T13:53:09.744000Z

Period
93.85 min
Inclination
53.1591°
Eccentricity
0.0001622
Mean motion
15.34400326 rev/d
Perigee alt
461.6 km
Apogee alt
463.8 km
Semi-major
6,840.8 km
B*
6.0822e-4
RAAN
298.3654°
Arg perigee
82.7056°
Mean anomaly
277.4131°
Rev number
2,677

§ Raw data

STARLINK-372621 68508U 26068A   26262.57858500  .00020229  00000+0  60822-3 0  99902 68508  53.1591 298.3654 0001622  82.7056 277.4131 15.34400326 26774

JSON: /api/v1/satellites/68508 · /tle

For live sub-satellite position, see the globe view (requires WebGL).

§ Visibility from observer

Set your observer location to see the next 7 days of passes ≥ 10°. The values pass through the URL so the page stays shareable.

No JS? Fill the form by hand. The geolocation button needs JavaScript.